Weather Roundup
Issued by NWS

Home | Current Version | Previous Version | Text Only | Print | Product List | Glossary On
Versions: 1 2 3 4 5 6 7 8 9 10 11 12 13 14 15 16 17 18 19 20 21 22 23 24 25 26 27 28 29 30 31 32 33 34 35 36 37 38 39 40 41 42 43 44 45 46 47 48 49 50
000
NZUS93 KARX 302010
HRRWXR

CURRENT HOURLY OBSERVATIONS ACROSS
MUCH OF THE UPPER MISSISSIPPI VALLEY
NATIONAL WEATHER SERVICE LA CROSSE WI
300 PM CDT MON MAY 30 2016


...SOUTHEAST MINNESOTA...


CITY           SKY/WX    TMP DP  RH WIND       PRES   REMARKS
ROCHESTER      MOSUNNY   79  52  38 E5        30.00F
ROCHESTER/MAYO FAIR      80  47  31 SE5       29.99F
WINONA         SUNNY     81  48  32 SW5       29.98F
AUSTIN         SUNNY     81  50  34 SE7       29.98F
ALBERT LEA     SUNNY     81  45  28 S9        29.98F
DODGE CENTER   SUNNY     82  43  24 SE12      29.99F
PRESTON        SUNNY     79  46  31 S6        30.01S
OWATONNA       SUNNY     82  45  26 S6        29.98F
FARIBAULT      SUNNY     81  52  36 SE5       29.98F
$$

...ELSEWHERE IN MINNESOTA...


CITY           SKY/WX    TMP DP  RH WIND       PRES   REMARKS
MINNEAPOLIS    MOSUNNY   82  51  34 S8        29.96F
INTNL FALLS    PTSUNNY   74  53  48 N9        29.95S
DULUTH         MOSUNNY   80  45  28 N7        29.95F
RED WING       SUNNY     82  46  28 CALM      29.96F
REDWOOD FALLS  SUNNY     83  52  34 S20G28    29.92F
MANKATO        SUNNY     82  46  28 SE12      29.95F
WORTHINGTON    CLOUDY    80  58  46 S15       29.93F
FAIRMONT       MOSUNNY   81  55  41 SE13G21   29.95F
$$

...SOUTHWEST WISCONSIN...


CITY           SKY/WX    TMP DP  RH WIND       PRES   REMARKS
LA CROSSE      SUNNY     84  46  26 VRB5      29.97F
PRAIRIE DU CHI SUNNY     81  42  25 CALM      29.99F
BOSCOBEL       SUNNY     84  48  28 VRB3      29.99S
LONE ROCK      MOSUNNY   83  48  29 N10       29.99F
PLATTEVILLE    SUNNY     80  47  31 S3        30.00F
FORT MC COY    NOT AVBL
CAMP DOUGLAS   SUNNY     80  54  41 W3        29.99F
MAUSTON-NEW LI CLEAR     80  49  33 SW3       29.99F
VIROQUA        FAIR      80  45  28 NE5       30.01F
WIS DELLS      SUNNY     80  41  24 N5        30.00S
$$

...ELSEWHERE IN WISCONSIN...


CITY           SKY/WX    TMP DP  RH WIND       PRES   REMARKS
MILWAUKEE      MOSUNNY   75  60  59 E9        29.99S
MADISON        MOSUNNY   81  49  32 N9        29.99F
GREEN BAY      MOSUNNY   79  50  36 W10       29.98F
EAU CLAIRE     SUNNY     80  49  33 CALM      29.97F
BLACK RVR FLS  FAIR      82  46  28 N5        29.98F
MEDFORD        SUNNY     75  51  43 W10G16    30.01F
WAUSAU         SUNNY     80  50  34 W13       29.99F
WIS RAPIDS     SUNNY     81  44  27 NW8       30.00F
MARSHFIELD     SUNNY     79  50  36 W8        30.00F
RICE LAKE      SUNNY     80  48  33 SW10      30.00F
$$

...NORTHEAST IOWA...


CITY           SKY/WX    TMP DP  RH WIND       PRES   REMARKS
WATERLOO       SUNNY     81  59  47 SE12      29.97F
DUBUQUE        SUNNY     81  48  31 S5        30.01F
DECORAH        SUNNY     81  46  30 SE8       30.00S
MASON CITY     SUNNY     80  61  52 S10       29.99F
CHARLES CITY   SUNNY     81  54  39 S12       29.99F
OELWEIN        SUNNY     79  57  47 S6        30.01S
$$

...ELSEWHERE IN IOWA...


CITY           SKY/WX    TMP DP  RH WIND       PRES   REMARKS
DES MOINES     MOSUNNY   87  59  38 SW13      29.94F
IOWA CITY      SUNNY     83  62  49 S10       29.99F
FORT DODGE     MOSUNNY   84  59  42 S10G20    29.94F
MARSHALLTOWN   SUNNY     83  61  47 S16       29.95F
CEDAR RAPIDS   SUNNY     82  63  52 VRB7      29.98F
$$

...NORTHERN ILLINOIS...


CITY           SKY/WX    TMP DP  RH WIND       PRES   REMARKS
CHICAGO-OHARE  MOSUNNY   86  55  34 NW13      29.97F
CHICAGO-MIDWAY MOSUNNY   84  57  39 E10       29.97F
MOLINE         SUNNY     86  59  39 SW5       29.98F
ROCKFORD       MOSUNNY   84  52  33 NW9       30.00F
PEORIA         MOSUNNY   88  51  28 W7        30.00F
$$

NOTE: "FAIR" INDICATES FEW OR NO CLOUDS BELOW 12,000 FEET WITH NO
SIGNIFICANT WEATHER AND/OR OBSTRUCTIONS TO VISIBILITY. WIND
SPEEDS ARE IN MILES-PER-HOUR.




USA.gov is the U.S. government's official web portal to all federal, state and local government web resources and services.